Regional Weather Roundup
Issued by NWS

Home | Current Version | Previous Version | Text Only | Print | Product List | Glossary Off
Versions: 1 2 3 4 5 6 7 8 9 10 11 12 13 14 15 16 17 18 19 20 21 22 23 24 25 26 27 28

000
ASUS45 KBOU 311907
RWRCO

WEATHER ROUNDUP FOR COLORADO
NATIONAL WEATHER SERVICE DENVER/BOULDER CO
100 PM MDT TUE MAY 31 2016

NOTE: "FAIR" INDICATES FEW OR NO CLOUDS BELOW 12000 FEET WITH NO
SIGNIFICANT WEATHER AND/OR OBSTRUCTIONS TO VISIBILITY.

COZ001>005-013-030-031-312000-
...NORTHWEST COLORADO...

CITY           SKY/WX    TMP DP  RH WIND       PRES   REMARKS
CRAIG          FAIR      67  35  30 NW6G17    30.12F
HAYDEN         FAIR      64  32  29 NW13G18   30.13F
MEEKER         FAIR      69  33  26 VRB5      30.11F
MOUNT WERNER   NOT AVBL
STEAMBOAT SPGS FAIR      64  35  33 SW8       30.13F
WALDEN         NOT AVBL
$$

COZ006>008-011-312000-
...WEST CENTRAL VALLEYS...

CITY           SKY/WX    TMP DP  RH WIND       PRES   REMARKS
GRAND JUNCTION FAIR      77  33  20 VRB6      29.99F
MONTROSE       FAIR      76  29  17 NE7       30.04F
EAGLE          MOSUNNY   70  30  23 SW7       30.08F
RIFLE          FAIR      74  32  21 NW5       30.03F
DELTA          FAIR      80  28  15 S5        30.00F
NUCLA          FAIR      77  23  13 MISG      30.07F
$$

COZ017>023-064>068-312000-
...SOUTHWEST COLORADO...

CITY           SKY/WX    TMP DP  RH WIND       PRES   REMARKS
DURANGO        FAIR      74  18  12 MISG      30.06F
CORTEZ         FAIR      79  21  11 W6        30.02F
PAGOSA SPRINGS FAIR      71  10   9 S9G20     30.12F
TELLURIDE      FAIR      65  17  16 W8G18     30.22S
WOLF CREEK PAS CLOUDY    46  21  36 SW17      30.39F
$$

COZ009-010-012-014-032>034-037-058>063-312000-
...CENTRAL COLORADO...

CITY           SKY/WX    TMP DP  RH WIND       PRES   REMARKS
ASPEN          FAIR      63  30  28 N13G22    30.12F
BUENA VISTA    FAIR      67  24  20 CALM      30.12F
COPPER MTN     NOT AVBL
BERTHOUD PASS  FAIR      37  30  75 W15G25    30.38R
COTTONWOOD PAS PTSUNNY   61  25  25 E5        30.24F
GUNNISON       FAIR      66  21  18 SW9       30.14F
KREMMLING      FAIR      63  30  29 SW7       30.14F
LEADVILLE      PTSUNNY   57  18  21 W14G22    30.23F
MONARCH PASS   FAIR      45  19  36 W20G36    30.46F
SALIDA         FAIR      70  32  24 SE12G17   30.17F
SUNLIGHT       FAIR      52  30  43 CALM      30.35F
WILKERSON PASS FAIR      54  25  32 SW6       30.35S
$$

COZ069>075-312000-
...SAN LUIS VALLEY/SANGRE DE CRISTO MOUNTAINS...

CITY           SKY/WX    TMP DP  RH WIND       PRES   REMARKS
ALAMOSA        FAIR      69  30  23 S8        30.10F
LA VETA PASS   FAIR      54  43  66 NE8       30.28F
SAGUACHE       FAIR      68  28  22 S8        30.12F
$$

COZ035-036-038>040-312000-
...NORTHERN COLORADO FRONT RANGE...

CITY           SKY/WX    TMP DP  RH WIND       PRES   REMARKS
DENVER INTL AP PTSUNNY   59  48  67 E14G20    30.10F
DMNS CITY PARK   N/A     63  47  55 E12G18    30.07F
AURORA         PTSUNNY   63  49  60 E10       30.09F
FRONT RANGE AP CLOUDY    57  48  72 E13G21    30.12F
ERIE MUNI ARPT FAIR      62  44  51 NE5G12    30.08F
BOULDER MUN AP FAIR      63  43  48 NE8       30.08S
CENTENNIAL     FAIR      64  46  52 VRB7      30.08F
BROOMFIELD     PTSUNNY   63  41  45 NE7       30.10F
FORT COLLINS   FAIR      63  45  51 E8        30.10S
LONGMONT       FAIR      67  44  42 SE6       30.10F
$$

COZ041-046-047-076>085-087-088-312000-
...PIKES PEAK/PALMER DIVIDE AND SOUTHERN FOOTHILLS...

CITY           SKY/WX    TMP DP  RH WIND       PRES   REMARKS
COLO. SPRINGS  FAIR      63  44  50 SE14G25   30.13F
A. F. ACADEMY  PTSUNNY   61  45  55 SE14G23   30.11F
SCHRIEVER AFB  NOT AVBL
ELLICOTT       NOT AVBL
FALCON         PTSUNNY   61  42  50 SE15      30.16F
FORT CARSON    FAIR      66  46  48 SE16      30.10F
LIMON          PTSUNNY   60  47  61 E10       30.12F
MONUMENT HILL  FAIR      57  45  62 S16G22    30.15F
TRINIDAD       FAIR      66  44  45 NE6       30.11F
$$

COZ042>045-048>051-090-091-312000-
...NORTHEAST COLORADO...

CITY           SKY/WX    TMP DP  RH WIND       PRES   REMARKS
GREELEY ARPT   FAIR      64  46  52 SE9       30.11S
AKRON          FAIR      62  43  49 E5        30.10F
BURLINGTON     FAIR      67  45  45 NE8       30.08F
WRAY           FAIR      66  41  39 CALM      30.09F
STERLING       FAIR      61  43  51 NE3       30.09F
HOLYOKE        FAIR      64  43  45 NE5       30.10S
FORT MORGAN    CLOUDY    62  45  52 S5        30.11F
$$

COZ086-089-092>099-312000-
...SOUTHEAST COLORADO...

CITY           SKY/WX    TMP DP  RH WIND       PRES   REMARKS
PUEBLO         PTSUNNY   68  47  46 SE13G20   30.07F
LA JUNTA       PTSUNNY   69  50  50 CALM      30.06F
LAMAR          FAIR      73  52  47 MISG      30.01F
SPRINGFIELD      N/A     68  54  60 E5        30.05F
$$




USA.gov is the U.S. government's official web portal to all federal, state and local government web resources and services.